Location: Im Katzhagen
(52.7667°N, 9.7333°E)
Time: 19:33:32
(UTC+00:00)

Daily predictions for brighter satellites

Satellite Brightness Start Highest point End
(mag) Time Altitude Azimuth Time Altitude Azimuth Time Altitude Azimuth
NOSS 3-4 (A) 3.8 16:53:33 10° NW 16:59:57 67° NE 17:07:32 10° ESE
NOSS 3-4 (C) 3.8 16:53:49 10° NW 17:00:15 67° NE 17:07:50 10° ESE
Cosmos 2227 Rocket 3.7 17:00:50 10° SE 17:04:02 16° E 17:07:15 10° ENE
Cosmos 1025 Rocket 3.3 17:00:55 10° SSE 17:05:01 45° E 17:09:10 10° NNE
Aureole 3 Rocket 3.2 17:01:56 10° N 17:05:42 36° ENE 17:08:46 10° SE
Thor Agena Rocket 4.4 17:06:28 10° S 17:11:30 57° WSW 17:16:37 10° NNW
Cosmos 2150 Rocket 4.5 17:06:46 10° NNW 17:11:38 39° NE 17:16:26 10° ESE
Sich 1 Rocket 3.6 17:09:49 10° N 17:14:23 67° ENE 17:18:55 10° SSE
Cosmos 2298 Rocket 4.5 17:10:37 10° NNW 17:15:38 40° NE 17:20:37 10° SE
ATLAS 2AS CENTAUR R/B 3.6 17:10:32 10° W 17:17:00 40° NNW 17:23:21 10° NE
GP-B 3.2 17:13:15 10° S 17:17:36 82° W 17:22:01 10° N
SKYMED 2 3.8 17:13:46 10° NNE 17:18:00 48° E 17:22:12 10° S
Cosmos 2123 Rocket 4.3 17:12:53 10° SSW 17:19:11 75° WNW 17:25:31 10° N
Resurs 1-3 3.5 17:16:51 10° SSE 17:21:06 66° ENE 17:25:23 10° N
ATLAS CENTAUR R/B 3.0 17:21:46 10° N 17:22:10 10° NNE 17:22:33 10° NNE
Lacrosse 5 rocket 1.4 17:21:05 10° W 17:24:31 55° NNW 17:27:50 11° ENE
CZ-4 R/B 3.1 17:27:51 11° ENE 17:28:21 12° NE 17:29:40 10° NE
Resurs 01 Rocket 2.1 17:24:35 10° SE 17:28:40 39° ENE 17:32:47 10° N
Cosmos 1782 3.7 17:28:16 10° NNE 17:31:10 22° ENE 17:34:03 10° ESE
SPOT 1/Viking Rocket 4.0 17:29:49 10° S 17:34:54 66° WSW 17:40:02 10° NNW
Cosmos 1674 Rocket 3.7 17:30:35 10° SSW 17:34:58 78° W 17:39:26 10° N
USA 267 3.3 17:30:33 10° ENE 17:37:08 79° SSE 17:43:41 10° WSW
CARTOSAT-1 3.5 17:35:02 10° SSE 17:39:09 59° ENE 17:43:18 10° N
Radarsat Rocket 4.0 17:36:29 10° SSE 17:42:24 82° ENE 17:48:55 10° NNW
ARIANE 6 FM1 Upper Stage 3.0 17:38:55 10° NW 17:42:44 44° NNE 17:45:29 17° E
Cosmos 2082 Rocket 4.4 17:39:44 10° NW 17:42:45 14° NNW 17:45:45 10° NNE
SL-19 R/B 4.4 17:38:41 10° SSE 17:44:45 71° ENE 17:50:33 10° NNW
Cosmos 2297 Rocket 2.2 17:42:10 10° SSW 17:47:45 64° ESE 17:53:22 10° NE
RESURS DK-1 4.0 17:45:43 10° N 17:48:23 17° NE 17:49:28 16° NE
Cosmos 1943 4.3 17:44:02 10° NNW 17:48:52 27° NE 17:51:55 17° E
Cosmos 1447 Rocket 4.4 17:43:03 10° S 17:49:10 78° E 17:55:20 10° NNE
SPOT 5 3.7 17:52:21 13° ESE 17:56:04 31° ENE 18:00:33 10° N
SeaSat 1 3.8 17:53:15 10° S 17:57:53 41° WSW 18:02:32 10° NW
SJ-6B 2.7 17:55:42 10° SE 17:59:00 46° ENE 18:02:20 10° N
Tiangong 0.6 17:58:45 10° S 17:59:06 10° S 17:59:27 10° SSE
Cosmos 1867 4.5 17:54:06 10° WSW 17:59:19 45° NW 18:04:35 10° NE
IRAS Rocket 4.3 17:53:59 10° SE 17:59:31 63° ENE 18:05:06 10° NNW
Cosmos 2228 2.9 17:59:10 10° N 18:03:20 64° ENE 18:07:30 10° SSE
PSLV R/B 3.5 17:59:47 10° SSE 18:03:54 79° WSW 18:08:01 10° NNW
COSMO-SKYMED 1 2.3 17:59:47 10° NNE 18:03:56 79° ESE 18:08:02 10° SSW
Cosmos 1544 Rocket 4.0 18:01:59 10° N 18:06:03 37° ENE 18:08:59 17° SE
Meteor 1-31 Rocket 3.3 18:06:27 29° ENE 18:06:36 29° ENE 18:09:39 10° N
NOSS 3-3 (C) 3.9 18:01:27 10° SW 18:06:51 81° NW 18:13:04 12° NE
Cosmos 1570 Rocket 3.9 18:03:10 10° SSW 18:08:26 75° ESE 18:13:41 10° NNE
CZ-2D R/B 4.2 18:04:58 10° S 18:08:48 52° W 18:12:46 10° NNW
YAOGAN 3 4.5 18:05:01 10° SSE 18:09:13 87° WSW 18:13:28 10° NNW
Cosmos 2344 4.1 18:03:42 10° S 18:10:30 34° ESE 18:14:29 20° ENE
Cosmos 1455 Rocket 3.4 18:06:46 10° NNW 18:11:02 65° W 18:15:17 10° S
YAOGAN 1 3.8 18:08:58 10° S 18:13:02 43° W 18:17:07 10° NNW
ADEOS 4.5 18:13:07 25° E 18:14:16 27° ENE 18:18:36 10° N
CZ-4B R/B 4.2 18:12:55 28° ESE 18:14:26 40° ENE 18:18:04 10° N
Cosmos 2263 Rocket 2.9 18:09:39 10° SSE 18:14:33 31° ESE 18:16:41 24° ENE
Cosmos 2034 Rocket 4.0 18:08:47 10° N 18:14:51 55° ENE 18:20:56 10° SSE
DMSP B5D1-3 4.5 18:10:00 10° NNE 18:15:04 62° ESE 18:20:08 10° S
Cosmos 1607 4.5 18:09:06 10° WSW 18:15:07 56° NW 18:21:06 11° NE
Cosmos 1975 Rocket 3.0 18:11:21 10° S 18:15:36 59° E 18:19:52 10° NNE
Cosmos 1072 Rocket 4.4 18:09:33 10° N 18:15:51 83° E 18:22:01 10° SSE
Cosmos 2237 Rocket 3.5 18:14:36 10° NW 18:19:56 42° WSW 18:25:15 10° S
Cosmos 1634 Rocket 4.5 18:15:16 10° N 18:21:10 38° ENE 18:24:28 23° ESE
DNEPR-1 R/B 4.4 18:19:52 10° NW 18:24:37 63° SW 18:30:18 10° SSE
Cosmos 773 Rocket 3.9 18:19:36 10° SSW 18:24:53 80° ESE 18:30:12 10° NNE
Cosmos 972 Rocket 4.3 18:25:21 10° NNW 18:30:07 44° ENE 18:31:37 35° ESE
Terra 2.9 18:31:23 25° NE 18:31:23 25° NE 18:34:38 10° N
Cosmos 2208 Rocket 3.9 18:25:34 10° SSW 18:30:49 82° ESE 18:36:12 10° NNE
NOSS 3-3 (A) 4.3 18:28:01 10° WSW 18:33:25 58° NNW 18:38:43 16° NE
Meteor 2-17 Rocket 4.4 18:31:03 10° S 18:37:08 86° WNW 18:43:13 10° N
Cosmos 1346 Rocket 2.4 18:36:01 10° S 18:39:37 73° E 18:40:09 60° NE
Cosmos 44 Rocket 3.2 18:35:03 10° SW 18:40:00 84° SE 18:42:35 30° NE
TSX-5 4.1 18:35:10 10° NW 18:40:32 84° NE 18:42:13 40° SE
Cosmos 1464 Rocket 4.2 18:35:33 10° NNW 18:41:54 73° W 18:48:10 10° S
Cosmos 2279 Rocket 4.4 18:36:27 10° N 18:42:12 38° ENE 18:43:01 36° E
Cosmos 1602 3.7 18:40:34 10° SSW 18:43:14 50° W 18:43:14 50° W
CZ-4C R/B 3.0 18:40:09 10° W 18:44:41 44° NNW 18:48:40 19° NE
SL-16 R/B 2.2 18:41:08 10° NNW 18:46:49 79° WSW 18:50:49 20° SSE
Cosmos 2227 Rocket 2.1 18:41:31 10° SSW 18:47:09 78° ESE 18:51:30 18° NE
ATLAS CENTAUR R/B 3.0 18:54:09 10° NNW 18:54:54 15° NNW 18:54:54 15° NNW
MetOp-B 4.3 18:57:17 50° ENE 18:57:32 50° ENE 19:02:43 10° N
CZ-4 R/B 1.9 19:02:50 45° N 19:02:50 45° N 19:05:32 10° NNW
Lacrosse 5 rocket 2.0 18:58:21 10° WNW 19:01:16 39° NNW 19:01:16 39° NNW
Resurs 01 Rocket 3.5 19:01:15 10° SSW 19:05:07 30° W 19:09:02 10° NNW
Cosmos 1782 4.2 19:02:42 10° NNW 19:05:58 34° W 19:09:14 10° SSW
ATLAS 2AS CENTAUR R/B 3.7 19:03:21 10° WNW 19:09:31 34° N 19:11:46 28° NE
CZ-4B R/B 3.0 19:12:00 66° ENE 19:12:08 66° ENE 19:17:24 10° NNW
CSL-04 Debris 4.3 19:12:12 25° S 19:15:30 74° WSW 19:20:57 10° NNW
CZ-4B DEB 4.1 19:14:53 42° SSE 19:16:52 85° WSW 19:22:21 10° NNW
ERS-1 Rocket 3.1 19:20:01 61° NNE 19:20:01 61° NNE 19:24:21 10° NNW
USA 267 3.4 19:17:49 41° NE 19:20:07 66° N 19:26:35 10° W
CSL-04 Rocket 4.0 19:17:14 21° S 19:20:44 62° WSW 19:26:00 10° NNW
ARIANE 6 FM1 Upper Stage 3.7 19:18:02 10° WNW 19:21:31 38° WSW 19:21:31 38° WSW
RESURS DK-1 3.7 19:22:25 10° NNW 19:24:45 34° NNW 19:24:45 34° NNW
Cosmos 2082 Rocket 4.4 19:26:46 10° NNW 19:29:26 13° NNE 19:30:22 13° NNE
Cosmos 2297 Rocket 3.7 19:27:05 10° WSW 19:32:11 33° NW 19:37:03 11° NNE
Cosmos 1943 3.1 19:27:51 10° NNW 19:33:36 87° WSW 19:33:43 86° SSW
SPOT 5 3.8 19:31:23 27° SSW 19:33:47 49° W 19:38:47 10° NNW
Okean O Rocket 3.6 19:39:04 19° N 19:39:04 19° N 19:40:25 10° N
Tsikada Rocket 3.9 19:30:19 10° SSW 19:36:29 82° W 19:42:43 10° N
MOS 1 4.3 19:38:44 70° SSW 19:39:20 78° WSW 19:45:03 10° NNW
Cosmos 2219 4.3 19:42:29 10° SSW 19:45:34 34° SSW 19:45:34 34° SSW
Cosmos 1603 4.2 19:43:48 10° NNW 19:48:05 50° N 19:48:05 50° N
ADEOS 4.0 19:53:50 58° W 19:53:50 58° W 19:58:35 10° NNW
Cosmos 2263 Rocket 2.6 19:52:32 10° SW 19:58:09 59° NW 19:58:28 59° NW
Terra 3.4 20:10:00 31° NW 20:10:00 31° NW 20:12:38 10° NNW
Cosmos 1833 Rocket 4.4 20:12:28 10° NNW 20:15:10 24° N 20:15:10 24° N
Cosmos 2344 3.5 20:16:48 10° WSW 20:24:15 70° NW 20:24:32 70° NNW
Cosmos 2227 Rocket 3.9 20:26:54 10° W 20:31:47 29° NW 20:33:22 25° NNW
CZ-4C R/B 3.8 20:29:30 10° WNW 20:33:37 30° NNW 20:33:37 30° NNW
ATLAS 2AS CENTAUR R/B 3.8 20:54:58 10° NW 20:59:11 38° NNW 20:59:11 38° NNW
USA 267 4.2 21:05:09 42° NW 21:05:09 42° NW 21:09:21 10° WNW
